Flag for Portugal Weather past 2 weeks in Coimbra, Portugal

Now
55 °F

Passing clouds.


Feels Like: 55 °F
Forecast: 61 / 93 °F
Wind: 2 mph from North

Location: Porto / Pedras Rubras

Current Time: Jul 8, 2015 at 7:40:51 AM

Latest Report: Jul 8, 2015 at 7:00 AM


Visibility: N/A

Pressure: 30.07 "Hg

Humidity: 100%

Dew point: 55 °F

Location of CoimbraLocation

Historic Weather in Coimbra — Graph

°F

Coimbra temperature yesterday

Maximum temperature yesterday: 72 °F (at 4:30 PM)
Minimum temperature yesterday: 57 °F (at 2:30 AM)
Average temperature yesterday: 65 °F

Past Weeks' High & Low Weather Summary

 TemperatureHumidityPressure
High75 °F (Jun 27, 1:00 PM)100% (Jun 25, 12:00 AM)30.21 "Hg (Jun 25, 12:00 AM)
Low52 °F (Jul 6, 5:00 AM)50% (Jul 3, 1:30 PM)29.92 "Hg (Jul 1, 6:00 AM)
Average64 °F85%30.10 "Hg
* Reported Jun 23 6:00 AM — Jul 8 6:30 AM, Coimbra, Weather by CustomWeather, © 2015

Note: Actual official high and low records may vary slightly from our data, if they occured in-between our weather recording intervals... More about our weather records

Advertising

Coimbra weather history for previous 24 hours

 ConditionsComfort  
Time TempWeatherWind HumidityBarometerVisibility
6:30 AM
Wed, Jul 8
55 °FPassing clouds.3 mph94%30.07 "Hg5 mi
6:00 AM55 °FPassing clouds.1 mph100%30.07 "HgN/A
5:30 AM55 °FClear.No wind100%30.07 "Hg10 mi
4:30 AM57 °FClear.2 mph94%30.07 "Hg10 mi
4:00 AM57 °FPassing clouds.5 mph94%30.07 "HgN/A
3:30 AM57 °FClear.3 mph100%30.07 "Hg10 mi
3:00 AM55 °FClear.No wind100%30.09 "Hg10 mi
2:30 AM57 °FClear.No wind100%30.09 "Hg10 mi
2:00 AM59 °FClear.No wind94%30.09 "Hg10 mi
1:30 AM59 °FClear.2 mph94%30.09 "Hg10 mi
1:00 AM59 °FPassing clouds.5 mph94%30.09 "HgN/A
12:30 AM61 °FClear.9 mph94%30.09 "Hg10 mi
12:00 AM63 °FClear.10 mph88%30.12 "Hg10 mi
11:30 PM
Tue, Jul 7
63 °FPassing clouds.13 mph88%30.12 "HgN/A
11:00 PM63 °FPassing clouds.13 mph88%30.12 "HgN/A
10:30 PM63 °FPassing clouds.10 mph88%30.12 "HgN/A
10:00 PM63 °FPassing clouds.12 mph88%30.12 "HgN/A
9:30 PM64 °FPassing clouds.14 mph83%30.12 "HgN/A
9:00 PM64 °FPassing clouds.14 mph83%30.12 "HgN/A
8:30 PM66 °FPassing clouds.10 mph83%30.12 "HgN/A
8:00 PM68 °FPassing clouds.12 mph78%30.12 "HgN/A
7:30 PM66 °FPartly sunny.10 mph94%30.12 "Hg6 mi
7:00 PM66 °FFog.14 mph94%30.12 "Hg3 mi
6:30 PM68 °FPartly sunny.13 mph88%30.12 "HgN/A
6:00 PM70 °FScattered clouds.14 mph83%30.12 "HgN/A
5:30 PM72 °FScattered clouds.12 mph78%30.12 "HgN/A
5:00 PM70 °FScattered clouds.14 mph83%30.12 "HgN/A
4:30 PM72 °FPassing clouds.13 mph78%30.12 "HgN/A
4:00 PM70 °FScattered clouds.12 mph83%30.12 "HgN/A
3:30 PM68 °FScattered clouds.10 mph88%30.15 "HgN/A
3:00 PM70 °FPassing clouds.9 mph83%30.15 "HgN/A
2:30 PM70 °FPassing clouds.10 mph83%30.15 "HgN/A
2:00 PM70 °FPassing clouds.9 mph78%30.15 "HgN/A
1:30 PM70 °FPassing clouds.9 mph78%30.15 "HgN/A
1:00 PM68 °FPassing clouds.10 mph83%30.15 "HgN/A
12:30 PM70 °FPassing clouds.9 mph78%30.15 "HgN/A
12:00 PM68 °FPassing clouds.8 mph83%30.15 "HgN/A
11:30 AM68 °FPassing clouds.10 mph83%30.12 "HgN/A
11:00 AM68 °FPassing clouds.7 mph83%30.12 "HgN/A
10:30 AM68 °FPassing clouds.8 mph83%30.12 "HgN/A
10:00 AM68 °FPassing clouds.3 mph78%30.12 "HgN/A
9:30 AM64 °FPassing clouds.6 mph94%30.12 "HgN/A
9:00 AM64 °FPassing clouds.6 mph88%30.12 "HgN/A
8:30 AM63 °FPassing clouds.5 mph88%30.12 "HgN/A
8:00 AM61 °FPassing clouds.5 mph94%30.12 "HgN/A
7:30 AM61 °FPassing clouds.2 mph94%30.09 "HgN/A
7:00 AM59 °FPassing clouds.1 mph100%30.09 "HgN/A
Weather by CustomWeather, © 2015

See weather overviewHow to use our weather pages